FALCON 9 DEB (53514 NORAD) Tracking and Keplerian Element Data

This shows tracking and keplerian element data for the satellite.

Feedback or suggestion? Click here.




ElementValue
Catalog53514
NameFALCON 9 DEB
Epoch Orbit717
Epoch Day269.81488993
Epoch Year2022
RAAN33.1664
Inclination97.6525
Eccentricity0.0005572
Argument of Perigee303.6761
Mean Anonmoly56.3994
Mean Motion16.17982931
Decay Rate0.01240713
L11 53514U 22099BB 22269.81488993 .01240713 25646-5 76752-3 0 9997
L22 53514 97.6525 33.1664 0005572 303.6761 56.3994 16.17982931 7170



Live tracking and technical data element details for FALCON 9 DEB (NORAD 53514). FALCON 9 DEB can be tracked NOW for your location showing map with azimuth and elevation plus other details from your city location.







IsCatalogInMostPopularTable: catalog: 53514, numindb: 3
Update: records affected: 1



GetName: 53514 FALCON 9 DEB

Hit Count: updated at: Thu, 08 Dec 2022 18:47:25 GMT